TimeAKDT,TemperatureF,Dew PointF,Humidity,Sea Level PressureIn,VisibilityMPH,Wind Direction,Wind SpeedMPH,Gust SpeedMPH,PrecipitationIn,Events,Conditions,WindDirDegrees,DateUTC
12:53 AM,33.1,28.0,82,29.86,10.0,Calm,Calm,-,N/A,,Mostly Cloudy,0,2013-10-01 08:53:00
1:53 AM,33.1,28.9,85,29.87,10.0,Calm,Calm,-,0.00,Snow,Light Snow,0,2013-10-01 09:53:00
2:53 AM,32.0,28.9,88,29.88,10.0,Calm,Calm,-,0.00,Snow,Light Snow,0,2013-10-01 10:53:00
3:53 AM,34.0,30.0,85,29.88,7.0,Calm,Calm,-,0.00,Snow,Light Snow,0,2013-10-01 11:53:00
4:08 AM,34.0,30.0,85,29.86,5.0,Calm,Calm,-,0.00,Snow,Light Snow,0,2013-10-01 12:08:00
4:53 AM,33.1,30.0,89,29.89,6.0,East,4.6,-,0.00,Snow,Light Snow,100,2013-10-01 12:53:00
5:20 AM,32.0,30.0,92,29.87,4.0,Calm,Calm,-,0.00,Snow,Light Snow,0,2013-10-01 13:20:00
5:53 AM,32.0,30.0,92,29.90,3.0,East,3.5,-,0.00,Snow,Light Snow,90,2013-10-01 13:53:00
6:53 AM,32.0,28.9,88,29.90,2.0,ENE,3.5,-,0.00,Snow,Light Snow,70,2013-10-01 14:53:00
7:53 AM,32.0,30.0,92,29.91,1.5,Calm,Calm,-,0.00,Snow,Light Snow,0,2013-10-01 15:53:00
8:53 AM,32.0,28.9,88,29.91,1.5,ENE,3.5,-,0.00,Snow,Light Snow,70,2013-10-01 16:53:00
9:53 AM,33.1,28.9,85,29.92,1.5,ENE,3.5,-,0.00,Snow,Light Snow,70,2013-10-01 17:53:00
10:40 AM,33.1,30.0,89,29.90,2.0,Calm,Calm,-,0.00,Snow,Light Snow,0,2013-10-01 18:40:00
10:53 AM,33.1,30.0,89,29.93,2.0,Calm,Calm,-,0.00,Snow,Light Snow,0,2013-10-01 18:53:00
11:45 AM,34.0,30.0,85,29.91,4.0,NE,3.5,-,0.00,Snow,Light Snow,40,2013-10-01 19:45:00
11:53 AM,34.0,30.0,85,29.94,4.0,Calm,Calm,-,0.00,Snow,Light Snow,0,2013-10-01 19:53:00
12:25 PM,34.0,30.0,85,29.91,6.0,NE,3.5,-,0.00,Snow,Light Snow,40,2013-10-01 20:25:00
12:53 PM,34.0,30.0,85,29.94,7.0,Calm,Calm,-,0.00,Snow,Light Snow,0,2013-10-01 20:53:00
1:53 PM,36.0,30.0,79,29.95,7.0,Calm,Calm,-,0.00,,Overcast,0,2013-10-01 21:53:00
2:34 PM,36.0,30.0,79,29.92,7.0,Calm,Calm,-,N/A,,Overcast,0,2013-10-01 22:34:00
2:53 PM,37.0,30.0,76,29.95,7.0,Calm,Calm,-,N/A,,Overcast,0,2013-10-01 22:53:00
3:37 PM,37.9,30.9,76,29.91,10.0,South,4.6,-,N/A,,Mostly Cloudy,180,2013-10-01 23:37:00
3:53 PM,37.9,30.0,73,29.94,10.0,Calm,Calm,-,N/A,,Mostly Cloudy,0,2013-10-01 23:53:00
4:53 PM,37.9,30.0,73,29.93,10.0,Calm,Calm,-,N/A,,Mostly Cloudy,0,2013-10-02 00:53:00
5:53 PM,37.9,30.0,73,29.94,10.0,Calm,Calm,-,N/A,,Mostly Cloudy,0,2013-10-02 01:53:00
6:53 PM,37.9,30.0,73,29.94,10.0,Calm,Calm,-,N/A,,Mostly Cloudy,0,2013-10-02 02:53:00
7:53 PM,37.0,30.0,76,29.94,10.0,Calm,Calm,-,N/A,,Mostly Cloudy,0,2013-10-02 03:53:00
8:53 PM,36.0,30.0,79,29.94,10.0,Calm,Calm,-,N/A,,Mostly Cloudy,0,2013-10-02 04:53:00
9:53 PM,36.0,30.9,82,29.94,10.0,Calm,Calm,-,N/A,,Mostly Cloudy,0,2013-10-02 05:53:00
10:53 PM,36.0,30.9,82,29.94,10.0,Calm,Calm,-,N/A,,Overcast,0,2013-10-02 06:53:00
11:53 PM,35.1,30.9,85,29.94,10.0,NE,4.6,-,N/A,,Overcast,50,2013-10-02 07:53:00